Regional Weather Roundup
Issued by NWS

Home | Current Version | Previous Version | Graphics & Text | Print | Product List | Glossary Off
Versions: 1 2 3 4 5 6 7 8 9 10 11 12 13 14 15 16 17 18 19 20 21 22 23 24 25 26 27 28 29 30 31 32 33 34 35 36 37 38 39 40 41 42 43 44 45 46 47 48 49 50

000
ASUS43 KMPX 290410
RWRMN
WEATHER ROUNDUP FOR MINNESOTA
NATIONAL WEATHER SERVICE TWIN CITIES/CHANHASSEN MN
1100 PM CDT WED JUN 28 2017


NOTE: "FAIR" INDICATES FEW OR NO CLOUDS BELOW 12,000 FEET WITH NO
SIGNIFICANT WEATHER AND/OR OBSTRUCTIONS TO VISIBILITY. N/A MEANS
CURRENT SKY AND/OR WEATHER CONDITIONS ARE NOT AVAILABLE.

MNZ060>063-068>070-290500-
   Twin Cities Metro

CITY           SKY/WX    TMP DP  RH WIND       PRES   REMARKS
TWIN CITIES    MOCLDY    70  60  70 NW15      29.62R
ST PAUL        CLOUDY    70  61  73 NW17      29.61R
CRYSTAL        CLOUDY    69  58  67 W12       29.60R
BLAINE         PTCLDY    72  61  68 W6        29.60R
LAKEVILLE      PTCLDY    70  63  78 W7        29.62R
EDEN PRAIRIE   MOCLDY    71  60  68 NW14G23   29.62R
SOUTH ST PAUL  PTCLDY    71  60  67 NW15G22   29.60R
LAKE ELMO      FAIR      68  61  77 W7        29.61R
$$
MNZ001>005-007-008-013>017-022>024-027-028-290500-
   Northwest Minnesota

CITY           SKY/WX    TMP DP  RH WIND       PRES   REMARKS
BEMIDJI        CLOUDY    60  60  97 NW12      29.65R
HALLOCK        CLOUDY    61  59  94 CALM      29.69R FOG
ROSEAU           N/A     61  55  82 NW3       29.69R
WARROAD        CLOUDY    59  55  88 NW5       29.68R
THIEF RVR FALL CLOUDY    60  59  96 N9        29.69R
CROOKSTON      CLOUDY    61  61 100 N8        29.69R
FOSSTON        CLOUDY    57  57 100 N8        29.68R
DETROIT LAKES  CLOUDY    61  59  94 NW13      29.69R
MOORHEAD       MOCLDY    64  61  88 NW5       29.69R
PARK RAPIDS    MOCLDY    62  56  80 NW8       29.64R
MAHNOMEN       CLOUDY    60  58  96 NW10      29.68R
$$
MNZ006-009>011-018-025>026-290500-
   North Central Minnesota

CITY           SKY/WX    TMP DP  RH WIND       PRES   REMARKS
BAUDETTE       CLOUDY    61  60  97 NE7       29.64S
FLAG ISLAND    CLOUDY    61  59  94 N8        29.67S
INTL FALLS     LGT RAIN  60  58  92 NE5       29.64S
WASKISH        DRIZZLE   61  57  88 NE6       29.64R
BIG FORK       LGT RAIN  59  57  94 N5        29.61S
LONGVILLE      CLOUDY    61  59  94 NW3       29.60R
GRAND RAPIDS   LGT RAIN  59  59 100 NW9       29.60R FOG
CRANE LAKE     DRIZZLE   57  57 100 N3        29.62S
ORR            DRIZZLE   57  55  94 CALM      29.58S
COOK           LGT RAIN  57  57 100 NE3       29.59S
WALKER         CLOUDY    60  59  97 NW8       29.62R
$$
MNZ012-019>021-037-290500-
   Northeast Minnesota

CITY           SKY/WX    TMP DP  RH WIND       PRES   REMARKS
DULUTH         LGT RAIN  59  59 100 W6        29.53R FOG
ELY            CLOUDY    57  57 100 NE5       29.58S
HIBBING        CLOUDY    58  58 100 N7        29.57R
EVELETH        CLOUDY    60  57  88 N5        29.57R
DULUTH HARBOR  DRIZZLE   52  50  93 E10       29.53R
TWO HARBORS    DRIZZLE   61  55  82 NE8       29.50S
SILVER BAY     CLOUDY    57  57 100 NE9G20    29.53S FOG
GRAND MARAIS     N/A     56  56 100 E15G22    29.57S
G MARAIS ARPRT DRIZZLE   55  54  94 NE10      29.61S
$$
MNZ029>031-032-039>041-046>048-054>057-064-290500-
   West Central Minnesota

CITY           SKY/WX    TMP DP  RH WIND       PRES   REMARKS
FERGUS FALLS   CLOUDY    64  59  82 N14G20    29.67R
WHEATON        CLEAR     64  61  88 NW6       29.70R
MORRIS         PTCLDY    66  61  82 N9        29.68R
ALEXANDRIA     CLOUDY    64  58  80 N13G23    29.68R
ELBOW LAKE     CLOUDY    64  60  86 NW14      29.70R
WADENA         MOCLDY    61  59  94 NW7       29.64R
GLENWOOD       CLOUDY    64  59  82 NW16      29.67R
APPLETON       CLEAR     66  61  82 NW5       29.68R
BENSON         CLEAR     64  61  88 N7        29.69R
ORTONVILLE     CLEAR     66  61  82 NW8       29.69R
MADISON        CLEAR     68  61  77 NW5       29.69R
WILLMAR        FAIR      66  63  88 W9        29.68R
$$
MNZ033>034-036-042>043-049>051-058-059-290500-
   Central Minnesota

CITY           SKY/WX    TMP DP  RH WIND       PRES   REMARKS
ST CLOUD       CLOUDY    67  61  81 NW18      29.60R
SAUK CENTRE    MOCLDY    64  59  82 NW13      29.65R
PAYNESVILLE    CLOUDY    66  59  77 W9        29.65R
AITKIN         CLOUDY    61  57  88 NW6       29.57R
PINE RIVER     CLOUDY    61  61 100 MISG      29.65R
BRAINERD       CLOUDY    61  59  93 NW13      29.60R
STAPLES        CLOUDY    61  59  94 NW8       29.63R
LONG PRAIRIE   CLOUDY    63  59  88 W14       29.64R
LITTLE FALLS   CLOUDY    63  59  88 NW9       29.62R
LITCHFIELD     CLOUDY    70  63  78 NW13      29.64R
BUFFALO        CLOUDY    67  59  73 W12       29.63R
MAPLE LAKE     CLOUDY    68  61  78 W5        29.63R
HUTCHINSON     CLOUDY    67  62  85 W6        29.66R
$$
MNZ037-044-045-052-053-290500-
   East Central Minnesota

CITY           SKY/WX    TMP DP  RH WIND       PRES   REMARKS
PRINCETON      CLOUDY    68  63  83 W10       29.59R
MORA           CLOUDY    63  61  94 W5        29.58R
CAMBRIDGE      CLOUDY    70  61  73 W7        29.57R
RUSH CITY      CLOUDY    66  61  82 W6        29.57R
MOOSE LAKE     CLOUDY    54  54 100 SW3       29.54R
HINCKLEY       CLOUDY    64  63  94 NW8       29.55R
CLOQUET        DRIZZLE   57  55  94 CALM      29.53S
MCGREGOR       CLOUDY    61  59  94 NW5       29.57R
$$
MNZ071>073-080-081-089-090-097-098-290500-
   Southwest Minnesota

CITY           SKY/WX    TMP DP  RH WIND       PRES   REMARKS
MONTEVIDEO     CLEAR     66  57  72 NW5       29.69R
GRANITE FALLS  CLEAR     65  62  87 W7        29.69R
CANBY          CLEAR     65  59  80 CALM      29.71R
REDWOOD FALLS  CLEAR     68  59  73 NW7       29.67R
OLIVIA         CLEAR     68  61  77 W8        29.66R
PIPESTONE      CLEAR     70  57  64 NE5       29.73R
WINDOM         CLEAR     68  63  83 NW9       29.70R
WORTHINGTON    CLEAR     68  61  78 N10       29.71R
JACKSON        CLEAR     70  63  78 CALM      29.71R
TRACY          CLEAR     68  63  83 NW7       29.71R
SLAYTON        CLEAR     68  61  79 N7        29.73R
$$
MNZ065>067-074>077-082>085-091>093-290500-
   South Central Minnesota

CITY           SKY/WX    TMP DP  RH WIND       PRES   REMARKS
MANKATO        CLOUDY    71  62  73 NW10      29.67R
NEW ULM        CLEAR     66  61  82 W5        29.67R
ST JAMES       CLEAR     66  64  94 NW3       29.69R
FAIRMONT       CLEAR     70  66  87 NW7       29.69R
GLENCOE        CLEAR     68  63  84 W6        29.64R
FARIBAULT      MOCLDY    72  63  73 W12       29.64R
OWATONNA       CLOUDY    72  64  78 W8        29.65R
WASECA         MOCLDY    70  63  78 W9        29.67R
ALBERT LEA     CLOUDY    68  66  94 SW5       29.66S
$$
MNZ078>079-086>088-094>096-290500-
   Southeast Minnesota

CITY           SKY/WX    TMP DP  RH WIND       PRES   REMARKS
ROCHESTER      CLOUDY    68  66  93 S12       29.68R
RED WING       CLOUDY    68  64  88 CALM      29.58R
STANTON        MOCLDY    72  63  71 W12G17    29.60R
DODGE CENTER   CLOUDY    70  66  88 SW5       29.65R
WINONA         CLOUDY    68  63  83 SW5       29.64R
AUSTIN         CLOUDY    70  66  88 S6        29.67R
PRESTON        HVY RAIN  66  64  93 SW12      29.68R
$$
ABBREVIATIONS USED IN REMARKS
   TC - TEMPERATURES IN CELSIUS
  WCI - WIND CHILL INDEX
   HX - HEAT INDEX
  VSB - VISIBILITY
$$




USA.gov is the U.S. government's official web portal to all federal, state and local government web resources and services.